Regional Weather Roundup
Issued by NWS Pendleton, OR

Home | Current Version | Previous Version | Text Only | Print | Product List | Glossary On
Versions: 1 2 3 4 5 6 7 8 9 10 11 12 13 14 15 16 17 18 19 20 21 22 23 24 25 26 27 28 29 30 31 32 33 34 35 36 37 38 39 40 41 42 43 44 45 46 47 48 49 50
345
ASUS46 KPDT 192225
RWRPDT
PENDLETON REGIONAL WEATHER ROUNDUP
NATIONAL WEATHER SERVICE PENDLETON OREGON
200 PM PST SUN NOV 19 2017

NOTE: FAIR INDICATES FEW OR NO CLOUDS BELOW 12,000 FEET WITH NO
SIGNIFICANT WEATHER AND/OR OBSTRUCTIONS TO VISIBILITY.

# INDICATES UNOFFICIAL STATION AND DATA

WAZ520-192310-
EAST SLOPES OF WASHINGTON CASCADES

CITY            SKY/WX      TMP DP  RH  WIND    PRES   REMARKS
#BULLFROG       N/A         39  31  73  CALM    N/A
#CLE ELUM HS    N/A         40  32  73  CALM    29.77F
#CLE ELUM LAKE  N/A         36  33  89  CALM    29.70F
#EASTON DOT     N/A         36  34  92  N2      N/A
#ELK HTS DOT    N/A         36  36  100 NE3     N/A
#GLENWOOD       N/A         49  24  37  S6      29.90F
#NELSON 3SW     N/A         33  31  92  CALM    30.04F
#NILE           N/A         40  31  70  CALM    29.10F
#TEANAWAY 4NE   N/A         39  33  79  CALM    N/A
#TROUT LAKE 1NE N/A         48  22  35  NW7     29.91F
#TROUT LAKE 1E  N/A         48  26  42  CALM    29.89F
$$

WAZ521-192310-
SIMCOE HIGHLANDS

CITY            SKY/WX      TMP DP  RH  WIND    PRES   REMARKS
#BICKLETON HS   N/A         N/A N/A N/A CALM    29.86F
#CENTERVILLE 1SWN/A         39  34  82  CALM    29.88F
#GOLDENDALE 1NE N/A         44  25  47  S2      N/A
#GOLDENDALE 4W  N/A         44  22  41  SW2     29.89F
#GOODNOE HILLS  N/A         43  34  70  W8      N/A
#LYLE 6NE       N/A         42  36  79  CALM    29.92F
#PITT 4SE       N/A         41  32  70  CALM    29.93F
$$

WAZ026-192310-
KITTITAS VALLEY

CITY            SKY/WX      TMP DP  RH  WIND    PRES   REMARKS
ELLENSBURG AP   CLOUDY      33  30  89  CALM    29.81F FOG
#ELLENSBURG CWU N/A         32  29  89  W1      29.80F
#ELLENSBURG 3NE N/A         31  30  96  CALM    27.88F
#ELLENSBURG 1E  N/A         33  30  89  CALM    29.92F
#KITTITAS 3S    N/A         31  30  96  CALM    29.86F
#MANASTASH RDG  N/A         37  37  100 S6      N/A
#RYEGRASS DOT   N/A         36  26  67  W6      N/A
$$

WAZ027-192310-
YAKIMA VALLEY

CITY            SKY/WX      TMP DP  RH  WIND    PRES   REMARKS
SUNNYSIDE AP    CLOUDY      42  37  82  E3      29.83F
YAKIMA AIRPORT  MOCLDY      44  32  62  CALM    29.82F
YAKIMA-VAGABOND MOSUNNY     41  30  65  N3      29.79F
#DONALD 2NE     N/A         44  19  36  W1      28.66F
#GRANDVIEW      N/A         44  32  62  CALM    29.79F
#MABTON         N/A         39  36  89  CALM    29.83F
#MOXEE 2E       N/A         30  N/A N/A CALM    30.04F
#NACHES 2SW     N/A         40  33  76  CALM    29.87S
#OUTLOOK DOT    N/A         42  35  76  NE1     N/A
#PARKER DOT     N/A         43  34  70  CALM    29.81F
#TERRACE HTS    N/A         43  35  73  CALM    29.83F
#TOPPENISH      N/A         40  35  82  CALM    29.77F
#I82 S UMTANUM RN/A         40  25  55  N2      N/A
#UNION GAP DOT  N/A         42  32  67  E1      29.85F
#W YAKIMA       N/A         41  31  67  CALM    29.85F
#WHITE SWAN 5E  N/A         37  33  85  CALM    29.86F
#WILEY CITY 3W  N/A         41  28  59  CALM    29.77F
#ZILLAH DOT     N/A         42  35  76  E8      N/A
$$

WAZ028-192310-
LOWER COLUMBIA BASIN...WASHINGTON

CITY            SKY/WX      TMP DP  RH  WIND    PRES   REMARKS
HANFORD         CLOUDY      45  34  65  E5      29.81F
PASCO           CLOUDY      52  26  36  SW10    29.88F
PROSSER AWOS    N/A         50  27  41  S16     29.86F
RICHLAND AWOS   CLOUDY      50  31  48  S7      29.85F
#BENTON CITY    N/A         46  30  53  S2      29.76F
#CONNELL 5N     N/A         46  32  58  SW3     29.88F
#CONNELL 5NW    N/A         46  33  60  S6      29.83F
#ELTOPIA 6NW    N/A         45  36  70  SE1     28.82F
#KAHLOTUS       N/A         45  33  63  CALM    29.88F
#KENNEWICK 3S   N/A         48  31  51  S6      29.88F
#PATERSON       N/A         41  35  79  CALM    29.88F
#PROSSER DOT    N/A         52  25  35  SW1     29.84F
#SAGEMOOR 2W    N/A         46  34  63  SE3     29.74F
#TOUCHET 2S     N/A         51  34  52  CALM    29.88F
#WEST PASCO     N/A         51  31  46  CALM    29.85F
$$

WAZ029-192310-
FOOTHILLS OF THE BLUES...WASHINGTON

CITY            SKY/WX      TMP DP  RH  WIND    PRES   REMARKS
WALLA WALLA AP  CLOUDY      51  34  52  W5      29.87F
#CLYDE 6NW      N/A         47  31  53  SW7     29.89F
#DAYTON SCHOOL  N/A         50  27  41  CALM    29.87F
#DELANEY DOT    N/A         51  28  41  N1      29.88F
#LOWDEN 2SE     N/A         51  35  54  NW6     29.85F
#PLEASANT VIEW 1N/A         45  34  65  S7      29.93F
#PRESCOTT       N/A         51  36  56  CALM    29.89F
#WHITMAN COLLEGEN/A         50  35  56  W7      29.85F
#WAITSBURG 5S   N/A         48  34  58  SW2     29.99F
#WAITSBURG 6SSE N/A         49  31  50  SW3     29.87F
#WAITSBURG 8N   N/A         46  N/A N/A S6      29.89S
#WALLA WALLA 5E N/A         57  34  42  NW5     N/A
#WALLA WALLA U  N/A         52  36  54  W2      29.90F
#WHITMAN MISSIONN/A         52  34  50  W3      29.91F
$$

WAZ030-192310-
BLUE MOUNTAINS...WASHINGTON

CITY            SKY/WX      TMP DP  RH  WIND    PRES   REMARKS
#DIXIE 5SE      N/A         50  21  32  S14     29.78F
$$

ORZ009-041-WAZ024-192310-
COLUMBIA RIVER GORGE

CITY            SKY/WX      TMP DP  RH  WIND    PRES   REMARKS
HOOD RIVER AP   MOCLDY      41  34  76  CALM    29.89F
THE DALLES AP   PTCLDY      38  34  85  CALM    29.92F
#ARLINGTON AIRPON/A         40  36  85  W9      29.90F
#ARLINGTON HS   N/A         46  33  60  W2      29.81F
#CELILO DOT     N/A         38  34  85  SW2     N/A
#LYLE           N/A         38  36  92  S5      29.93F
#MARYHILL       N/A         36  N/A N/A N1      N/A
#MURDOCK        N/A         37  34  89  S1      29.88F
#RUFUS DOT      N/A         38  N/A N/A NW9     N/A
#SMITHVILLE     N/A         37  35  92  N1      29.87F

$$

ORZ510-192310-
NORTH CENTRAL OREGON

CITY            SKY/WX      TMP DP  RH  WIND    PRES   REMARKS
#ANTELOPE       N/A         42  28  57  CALM    29.84F
#CHENOWITH 1W   N/A         45  33  63  S1      N/A
#COW CYN RST AREN/A         46  N/A N/A SW8     N/A
#DUFUR          N/A         42  34  73  CALM    29.89F
#DUFUR 9E       N/A         42  27  55  CALM    29.96F
#GRASS VALLEY 1SN/A         46  32  58  SW8     29.88F
#KENT DOT       N/A         47  15  27  SW10    N/A
#MAUPIN SCHOOL  N/A         43  32  65  CALM    29.93F
#MORO SCHOOL    N/A         44  32  62  SW2     29.86F
#SHANIKO 5WSW   N/A         42  N/A N/A S14     N/A    WCI 35
#SHANIKO 4NW    N/A         42  19  39  S18G28  29.85F WCI 34
#TYGH VALLEY 2NEN/A         44  34  68  CALM    29.92F
#WAPANITIA AIRPON/A         49  26  40  S1      29.94F
#WASCO DOT      N/A         39  37  92  CALM    N/A
#WASCO 5NE      N/A         42  33  70  SW3     29.90F
$$

ORZ511-192310-
CENTRAL OREGON

CITY            SKY/WX      TMP DP  RH  WIND    PRES   REMARKS
BEND AIRPORT    MOCLDY      55  21  26  S9      29.90F
PRINEVILLE AP   CLOUDY      52  23  32  S12     29.90F
REDMOND AIRPORT MOCLDY      54  23  30  S18G25  29.88F
#ASHWOOD SCHOOL N/A         44  33  65  CALM    29.85F
#BEND 1SW       N/A         46  28  49  SW2     N/A
#BEND-AWBREY    N/A         50  27  41  SW6     29.94F
#BEND-KIM LN    N/A         44  25  47  CALM    29.92F
#CULVER         N/A         50  24  36  SE7     29.76F
#CULVER 8W      N/A         52  17  25  E1      29.89F
#LAKE BILLY CHINN/A         52  N/A N/A S9      29.94F
#MADRAS 4S      N/A         50  10  19  S17     N/A
#POWELL BUTTE   N/A         52  11  19  SW9     29.85F
#PRINEVILLE     N/A         51  27  39  CALM    30.05F
#PRINEVILLE 3N  N/A         50  28  42  E5      29.96F
#WARM SPRINGS   N/A         41  33  73  CALM    29.76F

$$


ORZ509-192310-
EAST SLOPES OF OREGON CASCADES

CITY            SKY/WX      TMP DP  RH  WIND    PRES   REMARKS
#CAMP SHERMAN   N/A         52  20  28  CALM    29.96F
#LA PINE 4NW    N/A         45  27  49  CALM    30.08F
#LAVA BUTTE DOT N/A         44  19  36  SE2     N/A
#SISTERS ODOT   N/A         45  18  33  CALM    N/A
#SISTERS 3N     N/A         47  25  42  E3      29.88F
#SUNRIVER       N/A         46  27  47  SE3     30.01F
#TUMALO 3W      N/A         50  24  36  S10     29.81F
#WANOGA BUTTE D N/A         38  15  38  SW8     N/A

$$

ORZ044-192310-
LOWER COLUMBIA BASIN...OREGON

CITY            SKY/WX      TMP DP  RH  WIND    PRES   REMARKS
HERMISTON       CLOUDY      45  33  63  CALM    29.88F
#BOARDMAN SCHOOLN/A         42  37  82  N3      29.88F
#BOARDMAN 8SW   N/A         46  37  71  W1      29.89F
#ECHO 8SW       N/A         46  35  65  CALM    29.89F
#I-84 EX 198 DOTN/A         46  29  51  E6      N/A
#IONE SCHOOL    N/A         48  31  51  W2      29.92F
#UMATILLA       N/A         44  34  68  CALM    29.83F
$$

ORZ507-192310-
NORTHERN FOOTHILLS OF THE BLUES

CITY            SKY/WX      TMP DP  RH  WIND    PRES   REMARKS
PENDLETON AIRPT MOCLDY      47  28  47  NW10    29.86F
#ADAMS 3WNW     N/A         49  38  66  W5      29.89F
#ATHENA         N/A         52  27  38  CALM    29.91F
#CAYUSE         N/A         50  35  56  SW5     29.87F
#HELIX SCHOOL   N/A         48  33  56  N3      29.92F
#HELIX 3N       N/A         45  32  60  W8      29.84F
#HOLDMAN 6E     N/A         44  31  60  W5      29.71F
#M-F GROVE ELEM N/A         58  22  25  CALM    29.84F
#M-FREEWATER 5SEN/A         55  28  35  E5      29.86F
#PENDLETON DNTN N/A         49  30  48  W3      29.86F
#PDT AQUATIC CTRN/A         48  31  51  NW5     29.95S
#PDT SUNRIDGE   N/A         48  31  51  NW5     29.88F
#PENDLETON 6SE  N/A         49  33  54  NW2     29.85F
#PENDLETON 7NW  N/A         47  33  58  CALM    30.00F
#PILOT ROCK 1S  N/A         59  22  24  S7      29.87F
#PILOT ROCK     N/A         50  34  54  CALM    29.87F
#TUTUILLA       N/A         49  34  56  CALM    29.93F
#UMAPINE 2E     N/A         51  37  59  NW2     29.85F

$$

ORZ508-192310-
SOUTHERN FOOTHILLS OF THE BLUES

CITY            SKY/WX      TMP DP  RH  WIND    PRES   REMARKS
LEXINGTON       MOCLDY      48  34  58  N5      29.89F
#AJAX           N/A         46  21  37  NW7     30.02F
#CONDON 5W      N/A         43  23  45  CALM    29.82F
#HEPPNER EOC    N/A         53  23  31  S2      29.82F
#HEPPNER 4NE    N/A         50  23  34  S7      29.89F
#LEXINGTON 2SE  N/A         53  33  46  CALM    29.82F
#MIKKALO        N/A         47  29  49  CALM    29.96F
#OLEX 4N        N/A         45  35  68  W2      29.87F
#RUGGS 5NE      N/A         49  23  36  S9      30.01F
#RUGGS 2SW      N/A         51  22  32  SW7     29.91F

$$

ORZ502-503-192310-
BLUE MOUNTAINS

CITY            SKY/WX      TMP DP  RH  WIND    PRES   REMARKS
MEACHAM         CLOUDY      42  23  46  CALM    29.90F
#BATTLE MTN DOT N/A         44  18  35  S9      N/A
#GRANITE        N/A         39  19  44  W3      30.01F
#GREENHORN 9SW  N/A         41  26  55  E6      29.96F
#LADD CYN SMT   N/A         39  20  46  SE28G38 N/A    WCI 27
#LADD CREEK ODOTN/A         42  22  45  S12     N/A    WCI 35
#LONG CREEK HS  N/A         48  22  35  SW9     29.89F
#N POWDER DOT   N/A         42  23  46  SE24    N/A    WCI 32
#PIKES PEAK     N/A         47  16  28  CALM    27.99S
#TOLLGATE       N/A         37  21  52  SW6     29.76F
#TROY SCHOOL    N/A         48  33  56  CALM    29.80F
#UKIAH          N/A         49  26  40  CALM    29.90F
#WESTON 4E      N/A         43  24  47  E13     29.88F WCI 36
$$

ORZ505-192310-
JOHN DAY BASIN

CITY            SKY/WX      TMP DP  RH  WIND    PRES   REMARKS
JOHN DAY        MOCLDY      46  23  40  CALM    29.92F
#ANTELOPE 9ESE  N/A         45  28  51  NE1     N/A
#DAYVILLE SCHOOLN/A         46  25  43  E1      29.89F
#MITCHELL 8NW   N/A         46  21  37  SE5     29.96F
#MONUMENT HS    N/A         46  27  47  CALM    29.88F
#MT. VERNON 5SE N/A         46  25  43  E5      29.88F
#WINLOCK        N/A         46  24  42  CALM    29.85F
$$

ORZ506-192310-
OCHOCO AND JOHN DAY HIGHLANDS

CITY            SKY/WX      TMP DP  RH  WIND    PRES   REMARKS
#HORSE RIDGE DO N/A         49  19  30  S16G26  N/A    WCI 43
#IZEE 6NW       N/A         46  26  45  S3      N/A
#PAULINA ODOT   N/A         40  25  55  E3      N/A
#PINE MTN OBS   N/A         36  22  56  S20G35  N/A    WCI 25
#PRAIRIE CITY   N/A         46  28  49  CALM    30.10
#SENECA         N/A         42  N/A N/A N1      N/A
#SENECA 9NW     N/A         42  26  53  CALM    30.08F
$$

ORZ049-192310-
GRANDE RONDE VALLEY

CITY            SKY/WX      TMP DP  RH  WIND    PRES   REMARKS
LA GRANDE       CLOUDY      46  22  38  S24G31  29.96F WCI 38
#COVE SCHOOL    N/A         47  24  40  SW3     29.95F
#COVE 6NW       N/A         46  25  43  S15G28  29.98F WCI 40
#ELGIN 3N       N/A         45  18  33  SW17    29.90F WCI 38
#ELGIN 1E       N/A         46  25  43  S7      N/A
#IMBLER SCHOOL  N/A         44  23  43  S18G33  29.91F WCI 36
#ISLAND CITY 4N N/A         45  40  82  CALM    29.90F
#LADD CYN DOT   N/A         43  24  47  S31G46  N/A    WCI 32
#UNION 1S       N/A         46  26  45  SE16G29 30.02F WCI 39
$$

ORZ050-192310-
WALLOWA COUNTY

CITY            SKY/WX      TMP DP  RH  WIND    PRES   REMARKS
JOSEPH AIRPORT  MOCLDY      37  23  56  CALM    29.91F
#ENTERPRISE HS  N/A         40  26  57  W2      29.91F
#IMNAHA SCHOOL  N/A         52  22  31  N17G30  29.92F
#IMNAHA 10S     N/A         47  21  35  SW13G26 29.92F WCI 41
#JOSEPH         N/A         38  20  48  CALM    30.33F
#JOSEPH 3N      N/A         37  22  54  NW5     29.94F
#JOSEPH 3W      N/A         37  24  59  CALM    30.33F
#LOSTINE        N/A         42  25  51  CALM    29.83F
#LOSTINE 3SE    N/A         40  23  50  CALM    29.96F
#MT HOWARD 8000 N/A         34  10  36  SW20G35 29.86F WCI 23
#PROMISE 1S     N/A         43  25  49  SW12    30.04F WCI 37
#WALLOWA SCHOOL N/A         40  29  64  CALM    29.90F



$$



USA.gov is the U.S. government's official web portal to all federal, state and local government web resources and services.